Simultaneous Nadir Overpasses (SNOs) Predictions

Prediction of SNOs between NOAA-19 and NPP Satellite Orbit:

Table of predicted SNOs for the next 14.0 days since TLE Epoch: 2/8/2013
Index Date (NOAA-19) Time (NOAA-19) Lat,Lon (NOAA-19) SZA (NOAA-19 ) Date (NPP) Time (NPP) Lat,Lon (NPP) SZA (NPP ) Distance(km) Time Diff (sec)
1 02/09/2013 21:28:13 -80.85, -13.10 81.04 02/09/2013 21:29:26 -80.85, -13.21 81.07 2.01 73
2 02/09/2013 22:19:14 80.85, 154.08 98.96 02/09/2013 22:20:11 80.85, 154.11 98.92 0.62 57
3 02/09/2013 23:10:17 -80.84, -38.34 81.11 02/09/2013 23:10:55 -80.83, -38.24 81.15 1.74 38
4 02/10/2013 00:01:16 80.81, 129.56 98.79 02/10/2013 00:01:39 80.81, 129.44 98.79 2.15 23
5 02/10/2013 00:52:19 -80.79, -62.87 81.28 02/10/2013 00:52:23 -80.79, -62.92 81.28 1.01 4
6 02/10/2013 01:43:19 80.78, 104.67 98.67 02/10/2013 01:43:07 80.77, 104.76 98.66 1.69 12
7 02/10/2013 02:34:23 -80.78, -88.10 81.35 02/10/2013 02:33:52 -80.78, -87.95 81.36 2.75 31
8 02/10/2013 03:25:21 80.73, 80.13 98.49 02/10/2013 03:24:35 80.73, 80.08 98.52 1.07 46
9 02/10/2013 04:16:23 -80.70,-111.95 81.63 02/10/2013 04:15:18 -80.70,-111.95 81.60 0.14 65
10 02/22/2013 07:12:07 -80.86,-159.26 85.30 02/22/2013 07:13:15 -80.86,-159.30 85.33 0.81 68
11 02/22/2013 08:03:04 80.84, 8.34 94.65 02/22/2013 08:03:59 80.84, 8.26 94.63 1.34 55
12 02/22/2013 08:54:11 -80.85, 175.51 85.37 02/22/2013 08:54:44 -80.84, 175.66 85.41 2.78 33
13 02/22/2013 09:45:08 80.83, -16.90
